QPF
0.00 0.00 0.00 0.00 0.00 0.00 0.00 0.00 0.00 0.00 0.00 0.00 0.00 0.00 0.00 0.00 0.00 0.00 0.00 0.00 0.00 0.00 0.00 0.00 0.00 0.00 0.00 0.00 0.01 0.02 0.01 0.01 0.00 0.00 0.00 0.00 0.00 0.00 0.00 0.00 0.00 0.00 0.00 0.01
0.00 0.00 0.00 0.00 0.00 0.00 0.00 0.00 0.00 0.00 0.00 0.00 0.00 0.00 0.00 0.00 0.00 0.00 0.00 0.00 0.00 0.00 0.00 0.00 0.00 0.00 0.00 0.00 0.01 0.01 0.03 0.02 0.03 0.00 0.00 0.00 0.00 0.00 0.00 0.00 0.00 0.00 0.00 0.01
0.00 0.00 0.00 0.00 0.00 0.00 0.00 0.00 0.00 0.00 0.00 0.00 0.00 0.00 0.00 0.00 0.00 0.00 0.00 0.00 0.00 0.00 0.00 0.00 0.00 0.00 0.00 0.01 0.00 0.01 0.03 0.05 0.10 0.06 0.01 0.00 0.01 0.00 0.00 0.00 0.00 0.00 0.01 0.01
0.00 0.00 0.00 0.00 0.00 0.00 0.00 0.00 0.00 0.00 0.00 0.00 0.00 0.00 0.00 0.00 0.00 0.00 0.00 0.00 0.00 0.00 0.00 0.00 0.00 0.00 0.00 0.01 0.01 0.01 0.01 0.05 0.05 0.03 0.01 0.00 0.00 0.00 0.00 0.00 0.00 0.00 0.01 0.02
0.00 0.00 0.00 0.00 0.00 0.00 0.00 0.00 0.00 0.00 0.00 0.00 0.00 0.00 0.00 0.00 0.00 0.00 0.00 0.00 0.00 0.00 0.00 0.00 0.00 0.00 0.00 0.00 0.01 0.02 0.01 0.00 0.01 0.04 0.02 0.02 0.00 0.00 0.00 0.00 0.00 0.01 0.01 0.02
0.00 0.00 0.00 0.00 0.00 0.00 0.00 0.00 0.00 0.00 0.00 0.00 0.00 0.00 0.00 0.00 0.00 0.00 0.00 0.00 0.00 0.00 0.00 0.00 0.00 0.00 0.00 0.00 0.00 0.02 0.02 0.00 0.00 0.02 0.02 0.01 0.00 0.00 0.00 0.00 0.00 0.01 0.01 0.01
0.00 0.00 0.00 0.00 0.01 0.01 0.00 0.00 0.00 0.01 0.02 0.00 0.00 0.00 0.00 0.00 0.00 0.00 0.00 0.00 0.00 0.00 0.00 0.00 0.00 0.00 0.00 0.00 0.00 0.02 0.02 0.01 0.00 0.00 0.00 0.00 0.00 0.00 0.00 0.00 0.00 0.00 0.02 0.01
0.00 0.00 0.00 0.00 0.01 0.02 0.01 0.00 0.00 0.01 0.01 0.01 0.00 0.00 0.00 0.00 0.00 0.00 0.00 0.00 0.00 0.00 0.00 0.00 0.00 0.00 0.00 0.00 0.00 0.02 0.02 0.01 0.00 0.00 0.00 0.00 0.00 0.00 0.00 0.00 0.00 0.00 0.00 0.00
0.01 0.00 0.00 0.00 0.00 0.01 0.02 0.01 0.00 0.00 0.01 0.01 0.00 0.00 0.03 0.03 0.01 0.00 0.00 0.00 0.00 0.00 0.00 0.00 0.00 0.00 0.00 0.00 0.00 0.00 0.02 0.02 0.00 0.00 0.00 0.00 0.00 0.00 0.00 0.00 0.00 0.00 0.00 0.00
0.01 0.01 0.00 0.02 0.01 0.01 0.01 0.02 0.02 0.01 0.02 0.06 0.02 0.01 0.04 0.01 0.00 0.00 0.00 0.00 0.00 0.00 0.00 0.00 0.00 0.00 0.00 0.00 0.00 0.00 0.00 0.01 0.00 0.00 0.00 0.00 0.00 0.00 0.00 0.00 0.00 0.01 0.02 0.01
0.03 0.02 0.01 0.01 0.02 0.03 0.02 0.01 0.02 0.00 0.00 0.03 0.05 0.02 0.02 0.00 0.00 0.00 0.00 0.00 0.00 0.00 0.00 0.00 0.00 0.00 0.00 0.00 0.00 0.00 0.00 0.00 0.01 0.00 0.00 0.00 0.00 0.00 0.00 0.00 0.00 0.00 0.01 0.04
0.02 0.01 0.03 0.01 0.00 0.00 0.03 0.04 0.03 0.00 0.02 0.02 0.03 0.02 0.01 0.00 0.00 0.00 0.00 0.00 0.00 0.00 0.00 0.00 0.00 0.00 0.00 0.00 0.00 0.00 0.00 0.00 0.00 0.01 0.01 0.01 0.01 0.00 0.00 0.00 0.00 0.00 0.00 0.02
0.01 0.01 0.01 0.00 0.00 0.00 0.00 0.01 0.02 0.00 0.00 0.01 0.02 0.02 0.00 0.00 0.00 0.00 0.00 0.00 0.00 0.00 0.00 0.00 0.00 0.00 0.00 0.00 0.00 0.00 0.00 0.00 0.00 0.00 0.01 0.01 0.01 0.01 0.00 0.00 0.00 0.00 0.00 0.01
0.00 0.00 0.00 0.01 0.03 0.02 0.01 0.00 0.00 0.01 0.01 0.00 0.00 0.00 0.00 0.00 0.00 0.00 0.00 0.00 0.00 0.00 0.00 0.00 0.00 0.00 0.00 0.00 0.00 0.00 0.00 0.00 0.00 0.00 0.00 0.01 0.01 0.01 0.01 0.01 0.01 0.01 0.01 0.00
0.01 0.01 0.00 0.00 0.00 0.00 0.00 0.00 0.00 0.00 0.01 0.00 0.01 0.00 0.01 0.01 0.02 0.01 0.00 0.00 0.00 0.00 0.00 0.00 0.00 0.00 0.00 0.00 0.00 0.00 0.00 0.00 0.00 0.00 0.00 0.00 0.01 0.01 0.01 0.01 0.02 0.05 0.06 0.02
0.01 0.02 0.01 0.02 0.01 0.00 0.00 0.00 0.00 0.00 0.01 0.00 0.00 0.00 0.01 0.01 0.01 0.01 0.00 0.00 0.00 0.00 0.00 0.00 0.00 0.00 0.00 0.00 0.00 0.00 0.00 0.00 0.00 0.00 0.00 0.00 0.01 0.01 0.01 0.01 0.03 0.04 0.04 0.03
0.01 0.02 0.02 0.01 0.00 0.00 0.00 0.01 0.00 0.00 0.01 0.02 0.01 0.01 0.01 0.00 0.01 0.02 0.01 0.01 0.01 0.00 0.01 0.00 0.00 0.00 0.00 0.00 0.00 0.00 0.00 0.00 0.00 0.00 0.00 0.00 0.01 0.01 0.01 0.01 0.02 0.02 0.02 0.02
0.00 0.00 0.00 0.00 0.00 0.00 0.02 0.02 0.01 0.00 0.00 0.01 0.01 0.01 0.01 0.01 0.02 0.03 0.02 0.01 0.01 0.01 0.01 0.02 0.02 0.01 0.01 0.00 0.00 0.00 0.00 0.00 0.01 0.02 0.01 0.00 0.01 0.00 0.00 0.00 0.00 0.00 0.00 0.00
0.00 0.00 0.00 0.00 0.00 0.00 0.00 0.00 0.01 0.00 0.00 0.01 0.02 0.01 0.01 0.01 0.00 0.00 0.01 0.01 0.01 0.01 0.00 0.01 0.03 0.03 0.03 0.01 0.00 0.00 0.00 0.01 0.01 0.03 0.03 0.02 0.02 0.01 0.00 0.00 0.00 0.01 0.01 0.00
0.00 0.00 0.00 0.00 0.00 0.00 0.00 0.00 0.00 0.00 0.00 0.01 0.02 0.01 0.01 0.01 0.00 0.00 0.00 0.00 0.00 0.00 0.00 0.00 0.01 0.04 0.04 0.02 0.02 0.01 0.00 0.01 0.01 0.01 0.00 0.00 0.01 0.01 0.01 0.00 0.00 0.01 0.00 0.00
0.00 0.00 0.00 0.00 0.00 0.00 0.00 0.00 0.00 0.00 0.01 0.02 0.01 0.00 0.01 0.01 0.01 0.01 0.01 0.00 0.00 0.00 0.00 0.00 0.01 0.01 0.00 0.00 0.01 0.01 0.00 0.00 0.01 0.02 0.01 0.01 0.00 0.00 0.02 0.04 0.03 0.02 0.02 0.01
0.00 0.00 0.00 0.00 0.00 0.00 0.00 0.01 0.01 0.01 0.02 0.01 0.00 0.00 0.00 0.00 0.00 0.00 0.00 0.00 0.00 0.00 0.00 0.00 0.00 0.00 0.00 0.00 0.00 0.02 0.03 0.02 0.01 0.01 0.03 0.03 0.02 0.03 0.02 0.01 0.02 0.02 0.02 0.01
0.00 0.00 0.00 0.00 0.00 0.00 0.02 0.01 0.02 0.01 0.01 0.00 0.00 0.00 0.00 0.00 0.00 0.00 0.00 0.00 0.00 0.00 0.00 0.00 0.00 0.00 0.00 0.00 0.00 0.00 0.01 0.02 0.01 0.02 0.02 0.02 0.01 0.02 0.01 0.00 0.00 0.00 0.00 0.00
0.00 0.00 0.00 0.00 0.00 0.01 0.01 0.00 0.00 0.00 0.00 0.00 0.00 0.00 0.00 0.00 0.00 0.00 0.00 0.00 0.00 0.00 0.00 0.00 0.00 0.00 0.00 0.00 0.00 0.00 0.00 0.00 0.00 0.00 0.01 0.00 0.00 0.00 0.00 0.00 0.00 0.00 0.00 0.00
0.00 0.00 0.00 0.00 0.00 0.00 0.00 0.00 0.00 0.00 0.00 0.00 0.00 0.00 0.00 0.00 0.00 0.00 0.00 0.00 0.00 0.00 0.00 0.00 0.00 0.00 0.00 0.00 0.00 0.00 0.00 0.00 0.00 0.00 0.00 0.00 0.00 0.00 0.00 0.00 0.00 0.00 0.00 0.00
0.00 0.00 0.00 0.00 0.00 0.00 0.00 0.00 0.00 0.00 0.00 0.00 0.00 0.00 0.00 0.00 0.00 0.00 0.00 0.00 0.00 0.00 0.00 0.00 0.00 0.00 0.00 0.00 0.00 0.00 0.00 0.00 0.00 0.00 0.00 0.00 0.00 0.00 0.00 0.00 0.00 0.00 0.00 0.00
MSLP
1012.78 1012.06 1011.02 1010.00 1009.40 1008.54 1007.91 1006.79 1005.16 1004.38 1004.45 1005.45 1005.49 1005.17 1004.66 1004.88 1005.56 1005.77 1005.85 1005.99 1006.49 1007.27 1007.41 1008.14 1008.87 1009.72 1011.74 1013.13 1013.88 1014.63 1015.46 1016.22 1016.81 1017.18 1018.18 1019.30 1019.93 1020.09 1019.69 1019.95 1021.30 1022.38 1022.20 1022.38
1013.66 1012.27 1012.00 1011.65 1010.91 1009.75 1009.01 1008.04 1006.80 1006.11 1005.85 1006.58 1006.16 1005.13 1004.22 1003.76 1004.65 1005.19 1005.35 1005.67 1006.11 1006.57 1007.13 1007.85 1008.89 1009.36 1011.19 1012.41 1013.36 1014.03 1014.87 1015.82 1016.51 1017.27 1017.31 1018.91 1019.36 1019.82 1019.56 1019.95 1020.74 1021.85 1022.36 1022.18
1015.06 1014.23 1013.79 1013.72 1012.92 1011.91 1010.90 1009.86 1008.64 1007.66 1006.74 1006.89 1007.09 1006.01 1004.85 1003.96 1004.35 1004.79 1005.13 1005.47 1005.79 1006.31 1006.87 1007.35 1008.27 1009.14 1010.46 1012.03 1013.03 1013.74 1014.45 1015.31 1016.27 1017.03 1017.90 1018.53 1019.15 1018.47 1019.51 1019.79 1020.87 1021.50 1021.90 1022.07
1016.32 1015.48 1015.58 1015.28 1014.43 1013.75 1012.04 1011.50 1010.44 1009.35 1008.07 1006.23 1006.24 1005.10 1004.82 1004.47 1004.20 1004.62 1005.08 1005.56 1005.74 1006.21 1006.62 1007.03 1007.44 1008.30 1009.18 1010.47 1012.28 1013.33 1014.25 1015.12 1015.99 1016.71 1017.38 1018.04 1018.40 1017.59 1018.65 1019.14 1019.97 1020.80 1021.41 1021.72
1016.60 1016.23 1015.84 1015.57 1015.18 1014.96 1013.84 1012.98 1011.67 1010.42 1008.90 1007.77 1006.00 1005.26 1004.14 1003.16 1002.35 1003.31 1004.14 1005.13 1005.55 1006.14 1006.50 1006.94 1007.43 1007.63 1008.36 1009.70 1011.24 1012.70 1013.71 1014.77 1015.62 1016.22 1016.65 1017.31 1017.71 1018.18 1018.02 1018.50 1019.26 1019.83 1020.55 1021.12
1016.25 1015.58 1015.56 1015.45 1015.48 1015.49 1015.14 1014.56 1013.38 1011.91 1010.48 1007.77 1007.08 1005.53 1004.17 1003.54 1003.29 1003.56 1004.50 1005.06 1005.76 1006.19 1006.64 1007.02 1007.61 1008.12 1008.18 1008.79 1010.45 1011.97 1013.16 1014.26 1015.06 1015.72 1016.07 1016.64 1017.04 1017.75 1018.10 1018.14 1018.35 1018.70 1019.60 1020.27
1016.67 1015.84 1015.96 1016.51 1016.17 1015.92 1015.52 1014.86 1013.62 1012.18 1010.07 1008.46 1008.13 1006.70 1004.96 1004.40 1003.89 1004.23 1005.47 1006.57 1007.59 1007.99 1008.23 1008.88 1008.63 1008.65 1008.79 1008.85 1009.44 1011.16 1012.63 1013.66 1014.45 1015.08 1015.54 1015.91 1016.42 1017.08 1017.38 1017.27 1017.36 1017.66 1018.18 1019.76
1017.79 1016.95 1017.80 1017.62 1017.82 1017.11 1016.49 1015.23 1013.91 1012.29 1010.78 1009.69 1009.00 1006.86 1006.16 1006.07 1006.71 1007.37 1008.20 1009.46 1009.69 1009.87 1010.31 1010.40 1010.32 1009.92 1009.79 1009.56 1009.60 1010.26 1011.84 1013.00 1013.93 1014.57 1014.88 1015.32 1015.70 1016.32 1016.83 1017.02 1016.71 1016.70 1016.36 1017.61
1019.55 1018.22 1017.65 1017.69 1017.79 1017.89 1016.44 1015.48 1014.47 1013.52 1013.58 1011.90 1008.81 1008.60 1009.82 1009.69 1010.00 1009.78 1010.26 1011.03 1011.48 1012.03 1012.36 1012.18 1011.66 1011.55 1011.19 1010.83 1010.63 1010.23 1011.05 1012.33 1013.18 1013.90 1014.50 1014.67 1015.04 1015.51 1015.89 1016.37 1016.75 1016.56 1016.23 1016.45
1020.84 1019.60 1017.88 1018.13 1018.13 1018.29 1017.40 1017.83 1015.52 1014.98 1014.57 1012.15 1010.66 1010.68 1013.55 1014.13 1013.71 1013.10 1013.14 1013.54 1013.79 1013.56 1013.65 1013.30 1012.73 1012.28 1012.20 1011.95 1011.40 1011.07 1010.74 1011.24 1012.27 1013.05 1013.76 1014.03 1014.33 1014.72 1015.26 1015.87 1016.20 1016.21 1016.00 1016.13
1021.47 1020.81 1019.06 1018.53 1019.43 1018.32 1017.67 1017.30 1016.27 1014.75 1014.71 1013.81 1012.52 1015.83 1017.25 1016.64 1016.34 1016.05 1016.05 1015.76 1015.49 1015.10 1014.80 1014.24 1013.78 1013.32 1013.00 1012.70 1012.17 1011.62 1011.16 1010.64 1011.18 1012.06 1012.78 1013.34 1013.67 1013.87 1014.46 1014.97 1015.37 1015.55 1015.68 1016.05
1021.60 1020.97 1020.05 1020.55 1020.72 1019.66 1018.33 1016.95 1016.30 1015.26 1015.68 1016.03 1015.46 1018.02 1018.70 1018.20 1018.12 1017.79 1017.32 1017.07 1016.67 1016.31 1016.04 1015.42 1014.91 1014.33 1013.76 1013.24 1012.67 1011.71 1010.96 1010.70 1010.05 1010.63 1011.57 1012.22 1012.86 1013.17 1013.36 1014.06 1014.43 1014.64 1014.79 1015.34
1021.52 1020.77 1020.28 1020.05 1020.21 1020.30 1020.02 1019.11 1018.06 1017.35 1017.52 1018.10 1018.37 1019.23 1019.58 1019.97 1019.63 1019.36 1019.09 1018.09 1017.62 1017.18 1016.82 1016.72 1016.38 1015.63 1014.97 1014.26 1013.40 1012.49 1011.14 1009.73 1009.81 1009.39 1009.97 1010.99 1011.42 1011.89 1012.42 1012.81 1013.39 1013.86 1014.08 1014.40
1023.04 1022.96 1022.97 1023.59 1024.21 1024.04 1022.68 1021.66 1021.09 1020.52 1020.48 1020.38 1021.05 1021.12 1021.76 1021.67 1021.12 1020.38 1020.03 1019.76 1019.09 1018.53 1018.29 1017.94 1017.53 1016.87 1016.08 1015.21 1014.23 1013.05 1011.29 1009.76 1008.72 1008.84 1009.02 1009.27 1009.97 1010.64 1011.37 1011.94 1012.18 1012.62 1013.09 1013.50
1024.16 1024.51 1024.53 1024.80 1025.17 1024.68 1024.35 1024.21 1024.10 1023.92 1024.46 1023.96 1024.47 1023.85 1024.02 1023.22 1022.65 1022.58 1021.98 1021.39 1020.74 1019.84 1019.40 1018.93 1018.34 1017.65 1016.85 1015.80 1014.73 1013.51 1011.91 1010.07 1007.87 1007.82 1008.04 1008.31 1008.84 1009.84 1010.48 1010.81 1011.07 1011.44 1012.03 1012.35
1024.46 1024.58 1024.72 1024.70 1024.66 1024.18 1024.94 1025.96 1026.23 1026.17 1025.90 1025.38 1024.81 1024.64 1025.43 1024.82 1024.04 1023.57 1023.36 1022.70 1021.95 1021.13 1020.39 1019.83 1018.98 1018.15 1017.29 1016.34 1015.19 1014.03 1012.44 1010.49 1008.49 1006.86 1007.05 1007.78 1008.09 1008.74 1009.43 1009.96 1010.17 1010.58 1011.12 1011.53
1024.21 1024.19 1024.30 1024.47 1024.43 1024.73 1026.60 1028.28 1028.49 1028.54 1028.32 1028.02 1026.97 1027.64 1026.75 1025.60 1025.02 1024.95 1024.90 1024.22 1023.39 1022.60 1021.62 1020.67 1019.74 1018.81 1017.62 1016.61 1015.55 1014.23 1012.59 1010.76 1008.70 1006.70 1006.42 1007.03 1007.67 1007.90 1008.55 1009.24 1009.72 1009.77 1010.16 1010.62
1024.51 1024.48 1024.40 1024.52 1025.00 1026.44 1029.51 1029.82 1029.80 1029.57 1029.36 1029.07 1028.73 1028.22 1027.67 1027.00 1026.11 1025.91 1025.72 1024.99 1024.12 1023.35 1022.44 1021.32 1020.25 1019.16 1018.05 1017.02 1015.72 1014.20 1012.41 1010.94 1009.20 1007.55 1006.30 1006.70 1007.17 1007.64 1008.19 1008.63 1009.15 1009.25 1009.53 1009.93
1024.98 1024.65 1024.79 1025.05 1025.89 1028.33 1029.16 1029.66 1029.70 1029.82 1029.50 1029.53 1029.14 1028.81 1028.35 1027.40 1026.19 1025.69 1025.77 1025.41 1024.55 1023.48 1022.75 1021.79 1020.96 1019.50 1018.35 1017.19 1016.03 1014.43 1012.82 1011.30 1010.27 1009.30 1008.49 1007.82 1006.78 1007.14 1007.81 1008.26 1008.55 1009.09 1009.41 1009.82
1024.55 1024.40 1025.00 1025.67 1026.91 1028.89 1030.31 1029.77 1028.53 1028.95 1028.51 1029.08 1028.74 1028.62 1028.15 1027.36 1026.00 1026.58 1026.28 1025.71 1024.86 1024.07 1023.45 1022.52 1021.40 1019.97 1018.88 1017.89 1016.52 1015.09 1013.71 1012.55 1011.64 1010.66 1009.60 1008.84 1008.28 1007.62 1007.35 1007.87 1008.26 1008.79 1009.09 1009.42
1025.58 1025.52 1025.63 1026.30 1027.29 1029.64 1030.64 1029.58 1027.93 1028.05 1030.21 1029.22 1028.18 1028.16 1028.11 1027.90 1028.61 1027.97 1027.22 1026.34 1025.74 1024.88 1023.91 1022.90 1021.51 1020.29 1019.35 1018.11 1016.64 1015.13 1014.19 1013.26 1012.45 1011.23 1010.21 1009.34 1008.85 1008.41 1007.81 1007.62 1007.80 1008.28 1008.71 1009.03
1027.46 1027.09 1027.16 1027.19 1028.09 1029.77 1030.41 1029.53 1029.40 1030.23 1029.38 1028.20 1027.90 1027.64 1027.45 1027.59 1027.58 1027.35 1026.99 1025.80 1025.33 1024.44 1023.90 1022.43 1021.28 1020.63 1019.66 1018.43 1017.00 1015.75 1014.95 1013.99 1012.82 1011.72 1011.04 1010.17 1009.35 1008.42 1008.15 1007.76 1007.68 1007.91 1008.33 1008.65
1028.28 1028.99 1028.95 1029.40 1030.30 1030.69 1030.09 1030.15 1029.56 1028.89 1028.38 1027.74 1027.55 1027.43 1026.95 1026.64 1026.56 1026.34 1026.47 1025.97 1025.13 1024.44 1023.43 1023.03 1022.25 1021.07 1019.81 1018.61 1017.84 1017.27 1016.18 1014.71 1013.83 1012.56 1012.03 1011.11 1010.24 1009.13 1008.14 1008.01 1007.85 1007.81 1008.16 1008.41
1027.91 1027.94 1028.38 1029.38 1029.91 1029.61 1028.98 1028.76 1028.47 1028.23 1027.97 1027.62 1027.24 1026.95 1026.66 1026.30 1025.90 1025.51 1025.32 1024.91 1024.54 1023.78 1023.47 1023.14 1022.39 1021.15 1020.03 1019.08 1018.41 1017.95 1016.98 1015.83 1014.65 1013.83 1013.08 1012.14 1011.31 1010.75 1010.34 1009.84 1009.40 1008.76 1008.67 1008.29
1027.78 1027.74 1027.77 1028.36 1028.48 1028.16 1028.37 1028.33 1028.16 1027.76 1027.67 1027.51 1027.29 1026.98 1026.66 1026.36 1025.87 1025.30 1024.96 1024.60 1024.31 1023.77 1023.11 1022.71 1022.44 1021.90 1020.89 1020.11 1019.24 1018.26 1017.73 1016.90 1015.92 1015.02 1014.04 1013.42 1013.01 1012.56 1011.98 1011.79 1011.66 1011.70 1011.90 1011.13
1027.86 1027.99 1027.92 1028.36 1028.36 1028.10 1028.15 1028.12 1028.02 1027.60 1027.61 1027.55 1027.25 1026.93 1026.63 1026.37 1026.06 1025.74 1025.42 1025.24 1024.66 1024.18 1023.75 1023.10 1022.57 1022.24 1021.58 1020.96 1020.48 1019.25 1018.12 1017.48 1016.81 1016.00 1015.62 1015.33 1014.74 1014.21 1013.60 1013.18 1012.58 1012.42 1012.65 1011.48
Thickness
5572 5567 5574 5587 5594 5606 5604 5611 5626 5640 5649 5627 5632 5643 5659 5665 5665 5666 5672 5678 5681 5680 5690 5693 5694 5695 5683 5677 5675 5672 5669 5667 5667 5669 5663 5657 5654 5656 5664 5664 5656 5649 5653 5655
5537 5544 5550 5548 5558 5566 5573 5580 5595 5612 5615 5604 5611 5631 5654 5667 5660 5663 5667 5670 5672 5677 5680 5683 5683 5687 5679 5674 5672 5670 5667 5664 5662 5659 5663 5651 5650 5650 5657 5657 5655 5650 5648 5652
5493 5504 5504 5501 5512 5523 5534 5543 5565 5574 5594 5593 5591 5600 5626 5650 5648 5657 5661 5664 5667 5669 5671 5676 5677 5678 5677 5668 5665 5665 5663 5660 5656 5653 5647 5644 5643 5653 5649 5652 5649 5649 5648 5648
5458 5465 5456 5460 5468 5480 5494 5520 5532 5542 5557 5567 5593 5580 5605 5625 5632 5639 5649 5653 5659 5661 5666 5670 5674 5675 5678 5675 5666 5661 5658 5652 5648 5647 5644 5640 5640 5648 5650 5651 5650 5648 5646 5646
5456 5450 5447 5444 5448 5451 5458 5483 5500 5518 5536 5555 5576 5577 5603 5633 5635 5637 5642 5641 5647 5651 5657 5659 5664 5673 5676 5673 5666 5659 5655 5649 5645 5645 5644 5640 5636 5637 5646 5650 5648 5647 5646 5645
5465 5469 5459 5453 5448 5442 5442 5449 5466 5490 5508 5525 5547 5574 5593 5607 5616 5621 5626 5630 5633 5639 5643 5648 5653 5659 5667 5672 5664 5656 5651 5646 5643 5643 5643 5640 5639 5635 5633 5641 5645 5648 5648 5646
5463 5462 5456 5445 5440 5438 5437 5438 5444 5465 5497 5506 5540 5555 5586 5607 5616 5615 5601 5599 5605 5611 5618 5621 5633 5641 5649 5658 5663 5655 5648 5643 5642 5641 5641 5641 5640 5636 5636 5640 5644 5646 5648 5643
5445 5443 5429 5432 5420 5420 5421 5441 5447 5454 5495 5509 5534 5544 5573 5590 5583 5571 5563 5566 5576 5585 5590 5600 5609 5621 5633 5644 5653 5655 5645 5640 5638 5637 5639 5640 5640 5639 5637 5638 5643 5647 5655 5653
5424 5435 5442 5432 5423 5418 5428 5436 5454 5460 5451 5474 5533 5557 5535 5529 5522 5544 5544 5547 5552 5558 5565 5575 5590 5599 5611 5623 5634 5645 5645 5638 5636 5636 5635 5639 5640 5640 5639 5638 5638 5641 5649 5653
5419 5416 5445 5430 5420 5410 5417 5405 5432 5430 5426 5491 5529 5542 5489 5474 5491 5504 5512 5514 5525 5538 5546 5557 5571 5584 5594 5606 5619 5630 5641 5641 5637 5635 5633 5636 5638 5639 5638 5635 5636 5639 5643 5645
5411 5413 5437 5433 5399 5404 5419 5419 5433 5462 5462 5477 5522 5453 5436 5455 5468 5478 5483 5492 5502 5515 5528 5541 5553 5567 5578 5590 5603 5615 5626 5637 5639 5636 5634 5633 5637 5639 5637 5635 5636 5638 5640 5639
5420 5420 5420 5403 5393 5400 5410 5432 5443 5465 5460 5456 5462 5439 5437 5450 5459 5468 5475 5479 5486 5497 5509 5523 5536 5548 5562 5575 5589 5605 5618 5626 5639 5638 5634 5634 5633 5635 5638 5635 5636 5640 5642 5639
5431 5444 5443 5439 5425 5409 5399 5419 5435 5452 5457 5443 5438 5440 5442 5438 5442 5448 5450 5465 5473 5481 5493 5502 5514 5529 5542 5557 5573 5589 5608 5626 5630 5639 5640 5635 5638 5638 5637 5638 5635 5636 5638 5640
5424 5416 5405 5391 5377 5376 5380 5398 5416 5419 5413 5418 5405 5417 5415 5417 5421 5432 5437 5442 5451 5461 5469 5480 5492 5507 5520 5536 5555 5574 5596 5616 5631 5635 5639 5642 5641 5641 5637 5637 5638 5639 5638 5636
5406 5395 5389 5392 5383 5389 5384 5382 5387 5387 5388 5395 5387 5398 5390 5399 5405 5404 5416 5422 5428 5441 5449 5461 5474 5488 5504 5521 5540 5560 5581 5603 5631 5636 5639 5642 5642 5637 5636 5638 5640 5641 5639 5639
5404 5404 5394 5396 5402 5406 5388 5378 5379 5378 5376 5387 5398 5394 5379 5386 5394 5397 5397 5404 5411 5422 5433 5444 5458 5473 5490 5508 5525 5543 5564 5589 5613 5636 5639 5638 5640 5638 5636 5635 5638 5638 5637 5637
5412 5412 5410 5406 5417 5415 5382 5356 5352 5354 5354 5357 5365 5357 5363 5374 5380 5377 5377 5386 5393 5403 5416 5428 5440 5456 5477 5495 5512 5529 5552 5576 5602 5627 5635 5635 5634 5636 5635 5632 5631 5635 5635 5635
5413 5410 5420 5421 5412 5388 5349 5346 5343 5350 5351 5349 5349 5349 5352 5356 5367 5368 5368 5376 5386 5394 5405 5416 5429 5443 5463 5480 5499 5520 5544 5565 5588 5609 5626 5627 5628 5628 5627 5627 5626 5628 5630 5630
5416 5416 5416 5416 5407 5373 5366 5359 5356 5354 5355 5349 5348 5347 5346 5354 5369 5376 5369 5374 5383 5394 5402 5412 5422 5438 5451 5466 5484 5507 5528 5548 5565 5578 5589 5602 5621 5622 5620 5618 5620 5617 5618 5619
5442 5440 5428 5418 5395 5371 5359 5362 5383 5369 5384 5364 5360 5354 5352 5358 5371 5363 5366 5374 5381 5391 5397 5408 5419 5435 5446 5456 5471 5489 5506 5523 5536 5552 5567 5580 5590 5603 5612 5611 5609 5607 5609 5610
5430 5431 5431 5428 5411 5377 5363 5378 5396 5384 5361 5359 5371 5364 5359 5358 5346 5350 5359 5370 5376 5386 5394 5405 5420 5433 5442 5454 5469 5485 5495 5506 5518 5536 5550 5565 5574 5583 5593 5600 5602 5601 5600 5600
5403 5412 5413 5425 5411 5385 5375 5384 5377 5361 5369 5383 5380 5377 5373 5369 5364 5364 5366 5378 5381 5392 5395 5411 5421 5427 5437 5449 5464 5478 5486 5497 5510 5523 5533 5544 5556 5570 5577 5586 5592 5594 5592 5592
5401 5393 5394 5391 5381 5374 5381 5370 5379 5386 5386 5390 5388 5385 5386 5387 5386 5385 5378 5381 5389 5393 5405 5409 5412 5421 5434 5444 5453 5459 5470 5485 5497 5511 5518 5530 5540 5553 5569 5576 5582 5585 5584 5583
5419 5422 5410 5396 5388 5389 5398 5398 5396 5394 5393 5393 5394 5394 5396 5397 5399 5400 5397 5398 5400 5407 5407 5411 5416 5426 5433 5437 5441 5448 5459 5471 5484 5495 5504 5516 5525 5534 5540 5548 5554 5567 5568 5575
5420 5422 5420 5411 5410 5412 5405 5401 5399 5400 5397 5395 5395 5396 5396 5395 5398 5403 5404 5406 5407 5410 5415 5418 5419 5423 5430 5432 5434 5445 5450 5458 5469 5480 5491 5499 5507 5513 5522 5525 5527 5526 5525 5533
5418 5412 5412 5401 5407 5407 5402 5401 5398 5399 5396 5395 5396 5397 5399 5399 5399 5401 5401 5402 5405 5408 5409 5414 5417 5420 5425 5427 5428 5438 5444 5449 5456 5465 5472 5477 5486 5493 5501 5506 5512 5511 5509 5519